[[{"header":{"parameterUnit":"m.s-1","parameterCategory":2,"la1":30.2991,"la2":30.254,"lo1":-89.0895,"lo2":-89.0444,"dy":0.0017,"dx":0.0017,"nx":28,"ny":28,"refTime":"2025-06-13T21:00:00:Z","depth":"0","parameterNumber":2,"parameterNumberName":"U-component_of_CURRENTS"},"data":[0,0,0,0,0,0,0,0,0,0,0,0,0,0,0,0,0,0,0,0,0,0,0,0,0,0,0,0,0,0,0,0,0,0,0,0,0,0,0,0,0,0,0,0,0,0,0,0,0,0,0,0,0,0,0,0,0,0,0.161,0.161,0,0.1653,0.1654,0.1654,0.1654,0.1654,0.1654,0.1653,0.1668,0.1668,0.1669,0,0,0,0,0,0,0,0,0,0,0,0,0,0.1513,0.1514,0.161,0.161,0.1611,0.1653,0.1654,0.1654,0.1654,0.1654,0.1653,0.1653,0.1667,0.1668,0.1669,0,0,0,0,0,0,0,0,0,0,0,0,0,0.1553,0.1515,0.161,0.1618,0.1619,0.1653,0.1654,0.1654,0.1654,0.1654,0.1653,0.1653,0.1667,0.1668,0.1669,0.1686,0,0,0.1672,0.1673,0,0,0,0,0,0,0,0,0.1551,0.1557,0.1616,0.1618,0.1619,0.165,0.1625,0.1664,0.1654,0.1639,0.1653,0.1653,0.1661,0.1662,0.1669,0.1687,0.1688,0.1672,0.1673,0.1674,0.1674,0,0,0,0,0,0,0,0.1548,0.1555,0.1625,0.1617,0.1619,0.1615,0.162,0.1632,0.165,0.164,0.1641,0.1649,0.1661,0.1668,0.1669,0.1688,0.1672,0.1673,0.1674,0.1674,0.1702,0.1702,0,0,0,0,0,0,0.1549,0.1552,0.1623,0.1626,0.1586,0.1618,0.1623,0.1639,0.165,0.1653,0.165,0.1649,0.1666,0.1668,0.167,0.1674,0.1674,0.1675,0.1675,0.1702,0.1702,0.1702,0,0,0,0,0,0,0.1547,0.1555,0.1622,0.1591,0.16,0.162,0.1637,0.164,0.1648,0.1659,0.166,0.1656,0.1666,0.1668,0.1681,0.1675,0.1675,0.1676,0.1702,0.1702,0.1702,0.1694,0,0,0,0,0,0,0.1544,0.1554,0.1569,0.1592,0.1602,0.1644,0.1638,0.1641,0.1655,0.1655,0.1664,0.1665,0.1666,0.1679,0.1682,0.1677,0.1677,0.1702,0.1702,0.1702,0.1695,0.1694,0.1694,0,0,0,0,0,0.1541,0.1566,0.1569,0.1578,0.162,0.1645,0.1649,0.166,0.1656,0.1664,0.1667,0.1664,0.1682,0.168,0.1683,0.1679,0.1702,0.1702,0.1702,0.1695,0.1694,0.1694,0,0,0,0,0,0,0.1537,0.157,0.1573,0.1609,0.1625,0.1646,0.1662,0.1663,0.1672,0.1672,0.1673,0.1674,0.1682,0.1685,0.1684,0.1687,0.1689,0.169,0.1682,0.1682,0.1682,0.171,0.1678,0,0,0,0,0,0.1542,0.1568,0.1591,0.1619,0.1629,0.1643,0.1656,0.1661,0.1673,0.1677,0.1681,0.1684,0.1686,0.1688,0.1695,0.1702,0.1797,0.1699,0.1699,0.1699,0.1724,0.1848,0.1863,0.1703,0.1703,0.1703,0,0,0.1552,0.1572,0.1588,0.162,0.1635,0.1647,0.1649,0.1672,0.1676,0.1677,0.1686,0.1688,0.169,0.1694,0.1697,0.1695,0.1804,0.1699,0.1699,0.1725,0.185,0.1867,0.1881,0.1703,0.1703,0.1703,0,0,0.1574,0.1598,0.162,0.163,0.1653,0.166,0.1665,0.1683,0.1686,0.1696,0.1693,0.17,0.1703,0.1705,0.1704,0.1711,0.1801,0.1702,0.1721,0.184,0.1855,0.187,0.206,0.2092,0.1697,0.1697,0.1697,0,0.1581,0.161,0.1629,0.1643,0.1655,0.1663,0.1677,0.1681,0.1698,0.1715,0.1698,0.1729,0.171,0.1735,0.1718,0.1711,0.1828,0.1718,0.1844,0.1859,0.1875,0.2066,0.2101,0.1697,0.1697,0.1697,0.1697,0,0.1614,0.1628,0.1643,0.166,0.1674,0.1691,0.1697,0.1712,0.1713,0.1724,0.1756,0.1747,0.178,0.1748,0.1726,0.1805,0.1875,0.1835,0.1851,0.1891,0.209,0.2127,0.1696,0.1696,0.1696,0.1696,0,0,0.1648,0.1662,0.1665,0.1672,0.1683,0.1703,0.1715,0.1743,0.1784,0.1777,0.1848,0.1801,0.1827,0.1829,0.1814,0.1875,0.2062,0.1895,0.1902,0.2099,0.2412,0.2446,0.249,0.2056,0.206,0.2064,0.2529,0,0.1665,0.1685,0.1691,0.1711,0.1721,0.1734,0.1751,0.1776,0.1809,0.188,0.188,0.1935,0.185,0.1888,0.1933,0.2037,0.2151,0.1946,0.2332,0.2346,0.238,0.2528,0.2471,0.2877,0.2565,0.2571,0.2575,0,0.169,0.1701,0.1719,0.1742,0.1752,0.1765,0.1832,0.185,0.1932,0.1967,0.2027,0.2069,0.216,0.2082,0.2318,0.2204,0.232,0.2389,0.2408,0.2468,0.2445,0.2775,0.2956,0.2853,0.2632,0.2628,0.2624,0,0.1701,0.1721,0.1737,0.1742,0.1769,0.1794,0.1816,0.1881,0.1941,0.2058,0.2163,0.2251,0.2369,0.2482,0.2615,0.2507,0.2921,0.2797,0.2955,0.2963,0.3005,0.3005,0.3139,0.3005,0.3004,0.3003,0.3002,0,0.1715,0.1731,0.1746,0.1755,0.1801,0.1814,0.1893,0.1929,0.2046,0.2171,0.2225,0.238,0.2477,0.2703,0.2762,0.3024,0.307,0.3034,0.3092,0.3003,0.2998,0.2977,0.2861,0.302,0.3017,0.3013,0.301,0,0.1742,0.1731,0.1763,0.1794,0.1802,0.1846,0.1932,0.2027,0.2113,0.2305,0.237,0.2574,0.2862,0.3008,0.3268,0.3271,0.3394,0.3542,0.3466,0.3502,0.3451,0.3335,0.3454,0.3351,0.3799,0.3803,0.3806,0,0.1765,0.1783,0.1804,0.1839,0.1859,0.1917,0.1983,0.2045,0.2167,0.2427,0.256,0.2882,0.3101,0.3524,0.3622,0.3856,0.363,0.3906,0.3627,0.3512,0.3429,0.3205,0.3088,0.3729,0.3731,0.3733,0.3735,0,0.1848,0.185,0.1881,0.194,0.1997,0.2055,0.2152,0.2236,0.2373,0.2541,0.2803,0.2994,0.3408,0.3615,0.3915,0.3994,0.3696,0.3947,0.3849,0.3421,0.3174,0.308,0.3402,0.3751,0.3749,0.3748,0.3747,0.3747,0.1938,0.1981,0.2022,0.2072,0.2128,0.2194,0.2242,0.2377,0.2527,0.2752,0.2928,0.3187,0.3507,0.3894,0.3972,0.4023,0.3856,0.3896,0.3801,0.3613,0.3374,0.3759,0.4116,0.4117,0.4117,0.4117,0.4118,0,0.2062,0.2097,0.2166,0.2204,0.2265,0.2265,0.2373,0.2425,0.2575,0.2809,0.2994,0.3325,0.3598,0.3805,0.3968,0.3873,0.3656,0.3776,0.3426,0.3337,0.3761,0.3609,0.3845,0.3845,0.3845,0.3845,0.3845,0.3845,0.2141,0.2211,0.2215,0.2305,0.2338,0.2388,0.2423,0.2493,0.2628,0.2823,0.2991,0.3156,0.3445,0.3753,0.3763,0.3684,0.3339,0.328,0.3174,0.3437,0.3437,0.3437,0.3269,0.343,0.3429,0.2657,0.2651,0.2646]},{"header":{"parameterUnit":"m.s-1","parameterCategory":2,"la1":30.2991,"la2":30.254,"lo1":-89.0895,"lo2":-89.0444,"dy":0.0017,"dx":0.0017,"nx":28,"ny":28,"refTime":"2025-06-13T21:00:00:Z","depth":"0","parameterNumber":3,"parameterNumberName":"V-component_of_CURRENTS"},"data":[0,0,0,0,0,0,0,0,0,0,0,0,0,0,0,0,0,0,0,0,0,0,0,0,0,0,0,0,0,0,0,0,0,0,0,0,0,0,0,0,0,0,0,0,0,0,0,0,0,0,0,0,0,0,0,0,0,0,-0.0258,-0.0258,0,-0.0327,-0.0328,-0.0328,-0.0335,-0.0334,-0.0333,-0.0333,-0.0393,-0.0395,-0.0398,0,0,0,0,0,0,0,0,0,0,0,0,0,-0.0135,-0.0137,-0.0258,-0.0258,-0.0259,-0.0327,-0.0328,-0.0328,-0.0335,-0.0334,-0.0333,-0.0332,-0.0392,-0.0395,-0.0398,0,0,0,0,0,0,0,0,0,0,0,0,0,-0.0194,-0.0138,-0.0257,-0.0271,-0.0273,-0.0326,-0.0328,-0.0329,-0.0335,-0.0334,-0.0333,-0.0332,-0.0392,-0.0395,-0.0398,-0.0439,0,0,-0.0408,-0.041,0,0,0,0,0,0,0,0,-0.0191,-0.0198,-0.0268,-0.027,-0.0272,-0.0321,-0.0306,-0.0365,-0.0335,-0.0311,-0.0333,-0.0332,-0.0369,-0.0375,-0.0389,-0.0442,-0.0445,-0.0409,-0.0411,-0.0412,-0.0413,0,0,0,0,0,0,0,-0.0186,-0.0195,-0.0284,-0.0269,-0.0272,-0.0275,-0.0282,-0.0318,-0.0345,-0.0313,-0.0314,-0.0323,-0.037,-0.0386,-0.0391,-0.0446,-0.0409,-0.0412,-0.0414,-0.0415,-0.0523,-0.0524,0,0,0,0,0,0,-0.018,-0.0192,-0.0282,-0.0287,-0.0229,-0.0278,-0.0286,-0.0306,-0.0344,-0.0349,-0.0323,-0.0323,-0.0381,-0.0387,-0.0393,-0.0436,-0.0412,-0.0415,-0.0417,-0.0523,-0.0524,-0.0524,0,0,0,0,0,0,-0.0178,-0.0188,-0.028,-0.024,-0.0252,-0.0281,-0.0304,-0.0308,-0.0324,-0.0353,-0.0357,-0.0334,-0.038,-0.0388,-0.0428,-0.0439,-0.0417,-0.042,-0.0522,-0.0523,-0.0524,-0.0528,0,0,0,0,0,0,-0.0174,-0.0187,-0.0204,-0.024,-0.0254,-0.0317,-0.0305,-0.031,-0.0331,-0.0331,-0.0364,-0.0368,-0.038,-0.0423,-0.0431,-0.0443,-0.0423,-0.052,-0.0522,-0.0524,-0.0527,-0.0529,-0.0531,0,0,0,0,0,-0.017,-0.0204,-0.0204,-0.0215,-0.0275,-0.0318,-0.0326,-0.0342,-0.0333,-0.035,-0.0367,-0.0367,-0.0438,-0.0427,-0.0436,-0.0449,-0.052,-0.0522,-0.0524,-0.0526,-0.0529,-0.0531,0,0,0,0,0,0,-0.0168,-0.0209,-0.021,-0.0257,-0.0284,-0.032,-0.0343,-0.0346,-0.0374,-0.0372,-0.0387,-0.0394,-0.0432,-0.0444,-0.0431,-0.0485,-0.0476,-0.048,-0.0474,-0.0478,-0.048,-0.0424,-0.0425,0,0,0,0,0,-0.0173,-0.0205,-0.0238,-0.0276,-0.029,-0.0313,-0.0333,-0.0342,-0.037,-0.0381,-0.0401,-0.0423,-0.045,-0.0465,-0.0494,-0.053,-0.0487,-0.0543,-0.0545,-0.0547,-0.0508,-0.0464,-0.0457,-0.0531,-0.0531,-0.0531,0,0,-0.0185,-0.021,-0.023,-0.0277,-0.0299,-0.0321,-0.0323,-0.0358,-0.0368,-0.0385,-0.0412,-0.0439,-0.0463,-0.0499,-0.0516,-0.0509,-0.0506,-0.0549,-0.055,-0.051,-0.0465,-0.0457,-0.045,-0.0532,-0.0532,-0.0532,0,0,-0.0215,-0.0245,-0.0272,-0.0292,-0.0325,-0.0339,-0.0347,-0.0382,-0.039,-0.0427,-0.0433,-0.0456,-0.0512,-0.0517,-0.0528,-0.0561,-0.0523,-0.0583,-0.0546,-0.0506,-0.0498,-0.049,-0.0429,-0.0416,-0.058,-0.058,-0.058,0,-0.0222,-0.025,-0.0288,-0.0309,-0.031,-0.0343,-0.0347,-0.0379,-0.0419,-0.04,-0.0436,-0.0462,-0.0511,-0.0501,-0.0528,-0.0563,-0.052,-0.0535,-0.0504,-0.0496,-0.0488,-0.0427,-0.0412,-0.058,-0.058,-0.058,-0.058,0,-0.0261,-0.0273,-0.0293,-0.0318,-0.0335,-0.035,-0.0378,-0.039,-0.0403,-0.0406,-0.0407,-0.0464,-0.0451,-0.0502,-0.0537,-0.0507,-0.0488,-0.0514,-0.0488,-0.048,-0.0417,-0.0402,-0.0581,-0.058,-0.058,-0.058,0,0,-0.0272,-0.0307,-0.0305,-0.0273,-0.0324,-0.0317,-0.0348,-0.0337,-0.0286,-0.036,-0.0283,-0.039,-0.0379,-0.039,-0.0429,-0.0428,-0.0382,-0.0451,-0.0449,-0.0371,-0.026,-0.0259,-0.0242,-0.0398,-0.0395,-0.0393,-0.0238,0,-0.0268,-0.0266,-0.0301,-0.027,-0.0249,-0.0272,-0.0264,-0.0261,-0.0266,-0.0212,-0.0257,-0.022,-0.0348,-0.0317,-0.0345,-0.0358,-0.0341,-0.0419,-0.0293,-0.0288,-0.0273,-0.0224,-0.0248,-0.0113,-0.0223,-0.022,-0.0219,0,-0.0265,-0.0249,-0.022,-0.0154,-0.0145,-0.0141,-0.0061,-0.0067,-0.0035,-0.0022,-0.0013,-0.0023,-0.0028,-0.013,-0.0139,-0.0178,-0.021,-0.024,-0.0235,-0.0209,-0.0257,-0.014,-0.008,-0.0302,-0.0195,-0.0197,-0.0198,0,-0.0175,-0.0167,-0.0115,-0.0108,-0.0077,-0.0042,-0.0024,0.0005,0.0068,0.0122,0.0216,0.0178,0.0237,0.0153,0.0057,-0.0019,0.0077,-0.0028,-0.0046,-0.0045,-0.0025,-0.0027,-0.0143,0.0001,0.0001,0.0001,0.0,0,-0.0119,-0.0059,-0.0057,-0.0019,0.0095,0.0066,0.0188,0.0204,0.0278,0.0418,0.0342,0.0475,0.0315,0.0336,0.0181,0.0142,0.0185,0.0004,0.0005,-0.0031,-0.0035,-0.0195,-0.0321,0.0006,0.0005,0.0004,0.0003,0,0.0008,-0.0021,0.0077,0.0123,0.014,0.0234,0.0324,0.0432,0.0471,0.0659,0.0705,0.0749,0.0775,0.0626,0.0548,0.0366,0.0176,0.0261,0.0237,0.0231,-0.0059,-0.0182,-0.0191,-0.0298,0.0256,0.0257,0.0258,0,0.0096,0.014,0.021,0.0282,0.0309,0.0413,0.0503,0.0529,0.0644,0.0846,0.0976,0.1071,0.1172,0.105,0.0751,0.0547,0.0309,0.0374,0.0192,-0.0039,-0.0175,-0.0257,-0.0356,0.0221,0.0222,0.0222,0.0222,0,0.0299,0.0302,0.0383,0.0493,0.0588,0.0699,0.081,0.0919,0.1006,0.1177,0.1395,0.1496,0.1409,0.121,0.0926,0.0723,0.0195,0.0377,0.0148,-0.0187,-0.0287,-0.0402,0.0088,0.0227,0.0226,0.0226,0.0226,0.0225,0.0485,0.0574,0.0638,0.0736,0.0844,0.0961,0.1057,0.1205,0.1394,0.1637,0.1702,0.1904,0.1579,0.1183,0.0871,0.0264,0.0263,0.0039,-0.0075,-0.0124,-0.0289,0.0221,0.0337,0.0338,0.0338,0.0338,0.0338,0,0.0688,0.0737,0.0874,0.0966,0.108,0.1079,0.1254,0.1362,0.1583,0.1868,0.2045,0.2056,0.1605,0.1099,0.0306,-0.0127,-0.0332,-0.0366,-0.0533,-0.0605,-0.0133,-0.0205,-0.0213,-0.0212,-0.0212,-0.0212,-0.0212,-0.0212,0.0807,0.0926,0.0937,0.1115,0.1187,0.1325,0.1405,0.1605,0.1815,0.2161,0.2343,0.2454,0.2067,0.0624,-0.038,-0.0606,-0.0945,-0.0959,-0.1118,-0.0876,-0.085,-0.0825,-0.0926,-0.1085,-0.1086,-0.1572,-0.1577,-0.1581]}],[{"header":{"parameterUnit":"m.s-1","parameterCategory":2,"la1":30.2991,"la2":30.254,"lo1":-89.0895,"lo2":-89.0444,"dy":0.0017,"dx":0.0017,"nx":28,"ny":28,"refTime":"2025-06-13T21:00:00:Z","depth":"2","parameterNumber":2,"parameterNumberName":"U-component_of_CURRENTS"},"data":[0,0,0,0,0,0,0,0,0,0,0,0,0,0,0,0,0,0,0,0,0,0,0,0,0,0,0,0,0,0,0,0,0,0,0,0,0,0,0,0,0,0,0,0,0,0,0,0,0,0,0,0,0,0,0,0,0,0,0.1338,0.1338,0,0.1382,0.1382,0.1383,0.1396,0.1396,0.1396,0.1396,0.1408,0.1409,0.1409,0,0,0,0,0,0,0,0,0,0,0,0,0,0.1247,0.1249,0.1338,0.1338,0.1339,0.1382,0.1383,0.1383,0.1396,0.1396,0.1396,0.1396,0.1408,0.1409,0.1409,0,0,0,0,0,0,0,0,0,0,0,0,0,0.1287,0.1249,0.1337,0.1352,0.1354,0.1382,0.1383,0.1383,0.1396,0.1396,0.1396,0.1396,0.1408,0.1409,0.1409,0.1415,0,0,0.1411,0.1411,0,0,0,0,0,0,0,0,0.1284,0.129,0.1349,0.1351,0.1353,0.1385,0.1355,0.1393,0.1396,0.1378,0.1396,0.1395,0.1399,0.14,0.1407,0.1415,0.1416,0.1411,0.1411,0.1412,0.1412,0,0,0,0,0,0,0,0.1282,0.1288,0.1353,0.135,0.1353,0.1351,0.1356,0.1362,0.1386,0.1379,0.1381,0.1389,0.1399,0.1406,0.1407,0.1416,0.1411,0.1412,0.1412,0.1412,0.1435,0.1435,0,0,0,0,0,0,0.1281,0.1286,0.1352,0.1355,0.132,0.1353,0.1359,0.1373,0.1387,0.139,0.1389,0.1389,0.1405,0.1406,0.1407,0.1421,0.1412,0.1412,0.1413,0.1435,0.1435,0.1435,0,0,0,0,0,0,0.1279,0.1287,0.135,0.1322,0.133,0.1355,0.1371,0.1374,0.1388,0.1395,0.1397,0.14,0.1405,0.1406,0.1415,0.1421,0.1413,0.1413,0.1434,0.1435,0.1435,0.1444,0,0,0,0,0,0,0.1277,0.1286,0.1299,0.1322,0.1332,0.1365,0.1371,0.1375,0.1393,0.1394,0.1405,0.1405,0.1405,0.1414,0.1415,0.1422,0.1414,0.1434,0.1435,0.1435,0.1444,0.1445,0.1446,0,0,0,0,0,0.1273,0.1287,0.13,0.1308,0.1349,0.1365,0.1369,0.1384,0.1394,0.1397,0.1406,0.1405,0.1418,0.1415,0.1416,0.1423,0.1434,0.1435,0.1435,0.1443,0.1445,0.1446,0,0,0,0,0,0,0.1254,0.129,0.1305,0.133,0.1347,0.1368,0.1377,0.1389,0.1401,0.1405,0.1409,0.1411,0.142,0.1421,0.1417,0.1431,0.1426,0.1427,0.1431,0.1433,0.1434,0.1461,0.1414,0,0,0,0,0,0.1258,0.1277,0.1307,0.1325,0.1337,0.1359,0.1371,0.1383,0.1396,0.1401,0.141,0.1418,0.1423,0.1427,0.1431,0.144,0.1499,0.1445,0.1447,0.1448,0.1471,0.1554,0.1566,0.1437,0.1437,0.1437,0,0,0.125,0.1278,0.1285,0.1322,0.1339,0.1353,0.1365,0.1384,0.1398,0.1401,0.1419,0.1423,0.1427,0.1435,0.1439,0.1437,0.1519,0.1448,0.1449,0.1472,0.1556,0.1569,0.1581,0.1438,0.1437,0.1437,0,0,0.1243,0.1275,0.1286,0.1303,0.1335,0.1352,0.1359,0.1385,0.1401,0.1417,0.1423,0.1435,0.1442,0.145,0.1453,0.1466,0.1522,0.1462,0.1491,0.1571,0.1583,0.1594,0.1708,0.1729,0.1462,0.1462,0.1462,0,0.1236,0.1266,0.1289,0.1305,0.1329,0.1351,0.1371,0.1383,0.1408,0.1437,0.1422,0.1467,0.1452,0.1487,0.148,0.147,0.1543,0.1483,0.1576,0.1588,0.1599,0.1713,0.1736,0.1463,0.1463,0.1463,0.1463,0,0.123,0.1263,0.1271,0.1305,0.1326,0.1348,0.1375,0.14,0.1423,0.1446,0.1492,0.1487,0.1528,0.1506,0.1491,0.1559,0.1597,0.1569,0.1577,0.1613,0.173,0.1755,0.1464,0.1463,0.1463,0.1463,0,0,0.1201,0.1259,0.1264,0.1302,0.1339,0.1363,0.139,0.1443,0.1491,0.1502,0.1581,0.1557,0.1587,0.1594,0.1587,0.1627,0.1751,0.1633,0.1637,0.1756,0.1978,0.1903,0.1923,0.1749,0.1752,0.1755,0.2036,0,0.1201,0.125,0.1271,0.1321,0.1361,0.1398,0.1431,0.1477,0.1519,0.1594,0.1614,0.1672,0.1612,0.165,0.1683,0.1746,0.1813,0.1681,0.1916,0.1924,0.1861,0.1947,0.177,0.1995,0.206,0.2064,0.2067,0,0.1203,0.1243,0.1298,0.1385,0.1404,0.1426,0.1525,0.1557,0.1647,0.1684,0.1749,0.1791,0.1873,0.1807,0.1963,0.1893,0.1945,0.1974,0.1986,0.1932,0.1894,0.1964,0.2038,0.2109,0.2105,0.2102,0.2099,0,0.1217,0.1276,0.1336,0.1357,0.1433,0.1474,0.1516,0.1593,0.1657,0.1767,0.1847,0.1937,0.2034,0.2096,0.2152,0.2093,0.233,0.2261,0.2252,0.225,0.2153,0.2134,0.2382,0.2381,0.2381,0.238,0.2379,0,0.1245,0.1292,0.135,0.1382,0.1452,0.1502,0.1591,0.1636,0.1751,0.1843,0.191,0.2011,0.2112,0.2245,0.2255,0.2352,0.2433,0.23,0.2321,0.215,0.2128,0.2249,0.223,0.2391,0.2388,0.2386,0.2384,0,0.1275,0.131,0.1373,0.1443,0.1466,0.1518,0.1624,0.1704,0.1796,0.1935,0.1992,0.2152,0.231,0.2402,0.2546,0.2509,0.2578,0.2581,0.2388,0.2377,0.2432,0.241,0.2642,0.2641,0.2641,0.2641,0.2641,0,0.1307,0.1341,0.1401,0.1439,0.1472,0.1551,0.1619,0.171,0.1791,0.1994,0.2072,0.2287,0.2385,0.2591,0.2581,0.2658,0.2649,0.2524,0.2333,0.2464,0.2462,0.2439,0.2418,0.2244,0.2241,0.2238,0.2236,0,0.1341,0.1352,0.1393,0.1444,0.1507,0.1578,0.1671,0.1731,0.1859,0.197,0.2118,0.2223,0.2437,0.2436,0.2536,0.2515,0.2487,0.2466,0.2713,0.2162,0.2099,0.2092,0.2083,0.2211,0.2213,0.2215,0.2217,0.2218,0.1342,0.135,0.1371,0.141,0.1496,0.1542,0.156,0.1673,0.1746,0.186,0.2026,0.212,0.2252,0.2281,0.2264,0.2254,0.2382,0.228,0.2285,0.2294,0.2154,0.2089,0.2178,0.2181,0.2182,0.2184,0.2186,0,0.1266,0.1267,0.1331,0.1337,0.1389,0.1462,0.1547,0.1539,0.1564,0.1742,0.1828,0.1764,0.1842,0.1972,0.1928,0.1948,0.1884,0.1874,0.1787,0.1815,0.1839,0.167,0.157,0.1567,0.1565,0.1563,0,0,0.1206,0.1179,0.118,0.1171,0.1231,0.1236,0.1254,0.1282,0.1366,0.138,0.1456,0.1675,0.1879,0.1667,0.1685,0.1628,0.1681,0.1558,0.206,0.1982,0.2002,0.2095,0.187,0,0,0,0,0]},{"header":{"parameterUnit":"m.s-1","parameterCategory":2,"la1":30.2991,"la2":30.254,"lo1":-89.0895,"lo2":-89.0444,"dy":0.0017,"dx":0.0017,"nx":28,"ny":28,"refTime":"2025-06-13T21:00:00:Z","depth":"2","parameterNumber":3,"parameterNumberName":"V-component_of_CURRENTS"},"data":[0,0,0,0,0,0,0,0,0,0,0,0,0,0,0,0,0,0,0,0,0,0,0,0,0,0,0,0,0,0,0,0,0,0,0,0,0,0,0,0,0,0,0,0,0,0,0,0,0,0,0,0,0,0,0,0,0,0,-0.0335,-0.0336,0,-0.0401,-0.0402,-0.0403,-0.0415,-0.0414,-0.0413,-0.0413,-0.0475,-0.0477,-0.0479,0,0,0,0,0,0,0,0,0,0,0,0,0,-0.0232,-0.0234,-0.0335,-0.0336,-0.0337,-0.0401,-0.0402,-0.0403,-0.0415,-0.0414,-0.0413,-0.0413,-0.0474,-0.0477,-0.048,0,0,0,0,0,0,0,0,0,0,0,0,0,-0.0285,-0.0234,-0.0335,-0.035,-0.0352,-0.0401,-0.0402,-0.0403,-0.0415,-0.0414,-0.0413,-0.0412,-0.0473,-0.0477,-0.048,-0.0517,0,0,-0.049,-0.0491,0,0,0,0,0,0,0,0,-0.0282,-0.0289,-0.0347,-0.0349,-0.0352,-0.0399,-0.0389,-0.0441,-0.0415,-0.0391,-0.0413,-0.0412,-0.045,-0.0455,-0.0469,-0.052,-0.0522,-0.049,-0.0492,-0.0494,-0.0494,0,0,0,0,0,0,0,-0.0279,-0.0287,-0.0361,-0.0348,-0.0351,-0.0358,-0.0365,-0.0399,-0.0424,-0.0393,-0.0394,-0.0402,-0.0451,-0.0466,-0.0471,-0.0523,-0.049,-0.0493,-0.0495,-0.0496,-0.0598,-0.0599,0,0,0,0,0,0,-0.0271,-0.0283,-0.0359,-0.0363,-0.0314,-0.0361,-0.0368,-0.0385,-0.0424,-0.0429,-0.0402,-0.0402,-0.0461,-0.0467,-0.0473,-0.0511,-0.0493,-0.0497,-0.0498,-0.0598,-0.0599,-0.0599,0,0,0,0,0,0,-0.0269,-0.0278,-0.0357,-0.0324,-0.0334,-0.0363,-0.0382,-0.0386,-0.0403,-0.0431,-0.0436,-0.0414,-0.0461,-0.0469,-0.0507,-0.0514,-0.0498,-0.0501,-0.0597,-0.0598,-0.0599,-0.0593,0,0,0,0,0,0,-0.0266,-0.0277,-0.029,-0.0324,-0.0336,-0.039,-0.0383,-0.0388,-0.0409,-0.0409,-0.0443,-0.0448,-0.0461,-0.0502,-0.051,-0.0518,-0.0504,-0.0596,-0.0597,-0.0599,-0.0592,-0.0594,-0.0595,0,0,0,0,0,-0.0262,-0.0288,-0.0291,-0.03,-0.0353,-0.0391,-0.0398,-0.0415,-0.041,-0.0425,-0.0445,-0.0447,-0.0516,-0.0505,-0.0515,-0.0524,-0.0595,-0.0597,-0.0599,-0.0591,-0.0593,-0.0595,0,0,0,0,0,0,-0.0257,-0.0293,-0.0296,-0.0334,-0.0359,-0.0393,-0.0414,-0.0419,-0.0448,-0.0448,-0.0464,-0.0472,-0.0507,-0.0521,-0.0508,-0.0558,-0.0553,-0.0557,-0.0545,-0.0547,-0.0548,-0.0501,-0.0506,0,0,0,0,0,-0.0261,-0.0288,-0.0317,-0.0349,-0.0362,-0.0386,-0.0404,-0.0415,-0.0442,-0.0453,-0.0475,-0.0498,-0.0524,-0.0538,-0.0567,-0.0599,-0.0583,-0.0609,-0.0611,-0.0612,-0.058,-0.0566,-0.0562,-0.0605,-0.0605,-0.0605,0,0,-0.0266,-0.0292,-0.0306,-0.0349,-0.0372,-0.0387,-0.0396,-0.0428,-0.0435,-0.0457,-0.0483,-0.0511,-0.0535,-0.0568,-0.0584,-0.0578,-0.0598,-0.0614,-0.0615,-0.0582,-0.0567,-0.0562,-0.0558,-0.0606,-0.0606,-0.0606,0,0,-0.0284,-0.0315,-0.0334,-0.0353,-0.0387,-0.0402,-0.0409,-0.0443,-0.0454,-0.0488,-0.0498,-0.0523,-0.0575,-0.0581,-0.0592,-0.0619,-0.061,-0.0639,-0.0604,-0.0591,-0.0587,-0.0582,-0.0578,-0.0573,-0.0635,-0.0635,-0.0635,0,-0.0287,-0.0307,-0.0347,-0.0363,-0.0366,-0.0403,-0.0403,-0.0433,-0.0473,-0.0464,-0.0495,-0.0531,-0.0572,-0.0568,-0.0587,-0.0619,-0.061,-0.0595,-0.059,-0.0585,-0.058,-0.0577,-0.0571,-0.0635,-0.0635,-0.0635,-0.0635,0,-0.0303,-0.0317,-0.0333,-0.0355,-0.0372,-0.0386,-0.0414,-0.0431,-0.045,-0.046,-0.0472,-0.0525,-0.0524,-0.0564,-0.0591,-0.0577,-0.0583,-0.0596,-0.0578,-0.0575,-0.0573,-0.0567,-0.0634,-0.0634,-0.0634,-0.0634,0,0,-0.0294,-0.0332,-0.0331,-0.0313,-0.0358,-0.0357,-0.0382,-0.0382,-0.0355,-0.0418,-0.0373,-0.0456,-0.0459,-0.047,-0.0506,-0.0515,-0.0513,-0.0543,-0.0542,-0.0523,-0.0484,-0.0552,-0.0553,-0.0523,-0.0521,-0.052,-0.0502,0,-0.0279,-0.0282,-0.0311,-0.029,-0.028,-0.0307,-0.0307,-0.0315,-0.0335,-0.0312,-0.0354,-0.0343,-0.043,-0.0419,-0.0446,-0.0487,-0.0494,-0.0516,-0.05,-0.0499,-0.0548,-0.0547,-0.0522,-0.0509,-0.0496,-0.0496,-0.0495,0,-0.0264,-0.0258,-0.0238,-0.0206,-0.0201,-0.0198,-0.016,-0.0168,-0.0167,-0.0173,-0.0178,-0.0201,-0.0221,-0.0292,-0.0347,-0.0356,-0.041,-0.0455,-0.0455,-0.0506,-0.0556,-0.0507,-0.0499,-0.0485,-0.0486,-0.0487,-0.0487,0,-0.0195,-0.0192,-0.0158,-0.0155,-0.0147,-0.0122,-0.0115,-0.0115,-0.0086,-0.0069,-0.0031,-0.0068,-0.0053,-0.0137,-0.0262,-0.0288,-0.0319,-0.0362,-0.0468,-0.0474,-0.044,-0.0445,-0.0375,-0.0375,-0.0375,-0.0375,-0.0375,0,-0.0152,-0.0115,-0.0115,-0.0091,-0.0018,-0.0041,0.0029,0.0029,0.0058,0.0116,0.006,0.01,-0.0011,-0.0056,-0.0192,-0.0317,-0.0262,-0.0446,-0.0467,-0.0444,-0.045,-0.0415,-0.042,-0.0374,-0.0374,-0.0375,-0.0375,0,-0.0082,-0.0095,-0.0037,-0.0005,0.0011,0.0066,0.0116,0.0168,0.0181,0.0258,0.0279,0.0261,0.0186,0.0052,-0.0066,-0.0207,-0.0335,-0.0387,-0.0364,-0.0385,-0.0514,-0.0519,-0.0493,-0.0495,-0.0497,-0.0499,-0.05,0,-0.0051,-0.002,0.0037,0.0079,0.0095,0.0162,0.0207,0.0227,0.0278,0.034,0.0393,0.0371,0.034,0.0132,-0.0101,-0.0316,-0.0341,-0.0433,-0.0495,-0.0499,-0.0522,-0.0525,-0.0527,-0.0448,-0.0449,-0.0449,-0.045,0,0.0024,0.004,0.0085,0.0157,0.0213,0.0289,0.0352,0.0414,0.0446,0.0521,0.0583,0.057,0.0374,0.0168,-0.0127,-0.029,-0.041,-0.0456,-0.0421,-0.0445,-0.0462,-0.0484,-0.0486,-0.0455,-0.0455,-0.0454,-0.0454,-0.0454,0.0075,0.012,0.0157,0.0236,0.0302,0.0384,0.0465,0.0545,0.0641,0.0752,0.0695,0.0697,0.0455,0.008,-0.0182,-0.0447,-0.0463,-0.0551,-0.0546,-0.0541,-0.0563,-0.0584,-0.0603,-0.0604,-0.0604,-0.0604,-0.0604,0,0.0127,0.0159,0.0231,0.0305,0.039,0.042,0.0543,0.0645,0.0782,0.0855,0.0895,0.0657,0.0405,0.0143,-0.0257,-0.0526,-0.0527,-0.0595,-0.0524,-0.0519,-0.0514,-0.0531,-0.0565,-0.0565,-0.0565,-0.0566,0,0,0.0138,0.0198,0.0231,0.0349,0.0428,0.0556,0.0646,0.0818,0.0916,0.0993,0.0995,0.0887,0.0532,0.0257,-0.0101,-0.0309,-0.0346,-0.0359,-0.037,-0.024,-0.023,-0.048,-0.0502,0,0,0,0,0]}],[{"header":{"parameterUnit":"m.s-1","parameterCategory":2,"la1":30.2991,"la2":30.254,"lo1":-89.0895,"lo2":-89.0444,"dy":0.0017,"dx":0.0017,"nx":28,"ny":28,"refTime":"2025-06-13T21:00:00:Z","depth":"4","parameterNumber":2,"parameterNumberName":"U-component_of_CURRENTS"},"data":[0,0,0,0,0,0,0,0,0,0,0,0,0,0,0,0,0,0,0,0,0,0,0,0,0,0,0,0,0,0,0,0,0,0,0,0,0,0,0,0,0,0,0,0,0,0,0,0,0,0,0,0,0,0,0,0,0,0,0.0406,0.0406,0,0.0451,0.0451,0.0452,0.0509,0.051,0.0511,0.0512,0.0603,0.0604,0.0606,0,0,0,0,0,0,0,0,0,0,0,0,0,0.0379,0.0379,0.0406,0.0406,0.0407,0.0451,0.0451,0.0452,0.0509,0.051,0.0511,0.0512,0.0602,0.0604,0.0606,0,0,0,0,0,0,0,0,0,0,0,0,0,0.0404,0.0379,0.0405,0.0441,0.0444,0.0451,0.0451,0.0452,0.0508,0.051,0.0511,0.0512,0.0602,0.0604,0.0606,0.0593,0,0,0.0613,0.0614,0,0,0,0,0,0,0,0,0.0402,0.0404,0.0435,0.0438,0.0442,0.0476,0.0476,0.0502,0.0508,0.0484,0.0512,0.0513,0.0564,0.0569,0.0574,0.0597,0.0601,0.0614,0.0615,0.0616,0.0617,0,0,0,0,0,0,0,0.04,0.0403,0.0423,0.0435,0.044,0.0458,0.0463,0.0481,0.0516,0.0486,0.049,0.0495,0.0566,0.0571,0.0576,0.0602,0.0614,0.0616,0.0617,0.0618,0.0723,0.0724,0,0,0,0,0,0,0.0393,0.0401,0.0422,0.0425,0.0426,0.0457,0.0463,0.0463,0.0515,0.0524,0.0494,0.0498,0.0566,0.0573,0.058,0.0674,0.0616,0.0618,0.062,0.0722,0.0723,0.0725,0,0,0,0,0,0,0.0392,0.0394,0.042,0.0415,0.0419,0.0456,0.0457,0.0464,0.0498,0.0521,0.0531,0.0524,0.0568,0.0577,0.0617,0.0674,0.0619,0.0621,0.072,0.0722,0.0724,0.0793,0,0,0,0,0,0,0.0391,0.0394,0.0395,0.0414,0.0419,0.0444,0.0455,0.0463,0.0497,0.0503,0.0549,0.0557,0.057,0.0614,0.062,0.0676,0.0623,0.0718,0.0721,0.0723,0.0789,0.0797,0.0805,0,0,0,0,0,0.039,0.0386,0.0395,0.0398,0.0419,0.0445,0.045,0.048,0.0497,0.0516,0.0544,0.0557,0.0636,0.0616,0.0623,0.0682,0.0717,0.072,0.0723,0.0786,0.0796,0.0804,0,0,0,0,0,0,0.0367,0.0392,0.0402,0.0404,0.0432,0.0455,0.0469,0.0492,0.0528,0.0537,0.0564,0.0574,0.0635,0.0638,0.0616,0.0718,0.0683,0.0688,0.0728,0.0738,0.0745,0.0746,0.0625,0,0,0,0,0,0.0362,0.0373,0.0399,0.0402,0.0417,0.0447,0.0463,0.0486,0.0516,0.0534,0.0572,0.0608,0.0646,0.0676,0.0701,0.0748,0.0749,0.0792,0.08,0.0807,0.0812,0.0824,0.0833,0.0735,0.0735,0.0735,0,0,0.0349,0.0368,0.0371,0.04,0.0421,0.0451,0.0461,0.0491,0.0526,0.0537,0.06,0.0632,0.0661,0.0721,0.075,0.0738,0.0844,0.0811,0.0816,0.0817,0.0828,0.0838,0.0846,0.0737,0.0737,0.0737,0,0,0.0341,0.0352,0.0366,0.0395,0.0435,0.0457,0.0474,0.0518,0.055,0.0606,0.0628,0.0689,0.0748,0.0786,0.081,0.087,0.0877,0.089,0.0941,0.0954,0.0962,0.0969,0.1018,0.1028,0.0901,0.0902,0.0902,0,0.0326,0.0351,0.0374,0.0405,0.0432,0.0467,0.0499,0.053,0.0588,0.062,0.0639,0.0743,0.0782,0.0849,0.0891,0.0892,0.0903,0.0906,0.0964,0.097,0.0976,0.1024,0.1035,0.0905,0.0905,0.0904,0.0904,0,0.0339,0.0365,0.0377,0.0431,0.0463,0.0493,0.0542,0.0588,0.064,0.0679,0.0764,0.0812,0.0878,0.0913,0.0934,0.1006,0.1005,0.0965,0.094,0.099,0.1038,0.1048,0.0911,0.0909,0.0908,0.0907,0,0,0.0287,0.037,0.0376,0.0414,0.0483,0.051,0.0572,0.0638,0.0691,0.0759,0.0831,0.0924,0.0957,0.0985,0.1016,0.1051,0.1138,0.1044,0.1043,0.1093,0.1195,0.1133,0.1138,0.1102,0.1103,0.1104,0.1225,0,0.0294,0.0355,0.0398,0.0461,0.0499,0.0558,0.0618,0.0683,0.0749,0.0826,0.0885,0.0968,0.0978,0.1037,0.1067,0.1112,0.1161,0.1111,0.1138,0.114,0.1077,0.1145,0.1108,0.1233,0.1235,0.1236,0.1238,0,0.0297,0.0343,0.0408,0.0497,0.052,0.0575,0.0678,0.0738,0.0839,0.0892,0.0964,0.1008,0.1099,0.1091,0.1177,0.1142,0.1188,0.1214,0.1217,0.1136,0.1094,0.1162,0.1255,0.1254,0.1253,0.1251,0.125,0,0.0261,0.0347,0.0404,0.0435,0.0542,0.06,0.067,0.0773,0.0833,0.0949,0.1003,0.1076,0.1146,0.1178,0.1252,0.1224,0.1332,0.1287,0.1275,0.1273,0.1261,0.1251,0.1352,0.1351,0.1351,0.1351,0.135,0,0.0254,0.0294,0.0405,0.0437,0.0529,0.0608,0.0714,0.0789,0.0895,0.0972,0.1043,0.1109,0.1171,0.1235,0.1272,0.131,0.1346,0.1305,0.1296,0.1293,0.1286,0.127,0.1259,0.1355,0.1354,0.1353,0.1353,0,0.0215,0.0277,0.0353,0.0475,0.052,0.06,0.0745,0.0802,0.0913,0.1014,0.1058,0.1161,0.1254,0.1302,0.139,0.1348,0.1387,0.1397,0.1437,0.1425,0.1322,0.1313,0.1388,0.1387,0.1386,0.1385,0.1384,0,0.0202,0.0237,0.0376,0.0426,0.0495,0.0616,0.0684,0.0813,0.0871,0.1041,0.1072,0.121,0.1273,0.134,0.1392,0.1445,0.143,0.1435,0.1341,0.134,0.1325,0.1318,0.1311,0.1383,0.1382,0.1382,0.1382,0,0.0179,0.0235,0.03,0.04,0.0486,0.0578,0.0692,0.0731,0.0876,0.0971,0.1085,0.116,0.1264,0.1324,0.138,0.1408,0.1408,0.1423,0.1425,0.1337,0.1334,0.1318,0.1312,0.1378,0.1379,0.1379,0.1379,0,0.0161,0.0201,0.0278,0.0374,0.0451,0.0514,0.0597,0.0687,0.0772,0.0952,0.1003,0.1149,0.1268,0.1311,0.1362,0.1381,0.1356,0.1289,0.1297,0.1302,0.1213,0.1192,0.1205,0,0,0,0,0,0.014,0.017,0.0237,0.0332,0.0396,0.045,0.0568,0.0644,0.0789,0.0844,0.0926,0.1033,0.114,0.1216,0.1221,0.1309,0.1339,0.1306,0.126,0.1357,0.1362,0.1261,0,0,0,0,0,0,0.012,0.0169,0.0213,0.026,0.0307,0.0377,0.0451,0.056,0.0608,0.0763,0.0831,0.0954,0.1071,0.1126,0.1195,0.1216,0.1163,0.1401,0.1399,0.1355,0.1359,0.1362,0.1261,0,0,0,0,0]},{"header":{"parameterUnit":"m.s-1","parameterCategory":2,"la1":30.2991,"la2":30.254,"lo1":-89.0895,"lo2":-89.0444,"dy":0.0017,"dx":0.0017,"nx":28,"ny":28,"refTime":"2025-06-13T21:00:00:Z","depth":"4","parameterNumber":3,"parameterNumberName":"V-component_of_CURRENTS"},"data":[0,0,0,0,0,0,0,0,0,0,0,0,0,0,0,0,0,0,0,0,0,0,0,0,0,0,0,0,0,0,0,0,0,0,0,0,0,0,0,0,0,0,0,0,0,0,0,0,0,0,0,0,0,0,0,0,0,0,0.0277,0.0277,0,0.0266,0.0266,0.0266,0.0198,0.0196,0.0195,0.0193,0.0109,0.0108,0.0108,0,0,0,0,0,0,0,0,0,0,0,0,0,0.0179,0.0181,0.0277,0.0277,0.0277,0.0266,0.0266,0.0265,0.0198,0.0196,0.0194,0.0192,0.0109,0.0108,0.0107,0,0,0,0,0,0,0,0,0,0,0,0,0,0.0199,0.0182,0.0277,0.0243,0.0239,0.0266,0.0266,0.0265,0.0198,0.0196,0.0194,0.0192,0.011,0.0109,0.0107,0.0146,0,0,0.0104,0.0103,0,0,0,0,0,0,0,0,0.0198,0.0203,0.0248,0.0245,0.0242,0.0232,0.02,0.0222,0.0199,0.0213,0.0193,0.019,0.0146,0.0142,0.0144,0.0142,0.0138,0.0104,0.0103,0.0102,0.0102,0,0,0,0,0,0,0,0.0197,0.0202,0.0271,0.0248,0.0244,0.0207,0.0208,0.0204,0.019,0.0211,0.0207,0.0208,0.0143,0.0145,0.0141,0.0137,0.0104,0.0102,0.0102,0.0101,0.0102,0.0103,0,0,0,0,0,0,0.0207,0.0202,0.0272,0.0271,0.0215,0.0211,0.0212,0.0236,0.0192,0.0184,0.021,0.0205,0.0149,0.0143,0.0138,0.0141,0.0102,0.0101,0.01,0.0101,0.0102,0.0103,0,0,0,0,0,0,0.0205,0.0214,0.0272,0.0235,0.024,0.0216,0.0243,0.0237,0.0231,0.0192,0.0181,0.0208,0.0147,0.014,0.0136,0.0138,0.0101,0.0099,0.01,0.0101,0.0102,0.0172,0,0,0,0,0,0,0.0203,0.0215,0.0239,0.0237,0.0243,0.0293,0.0246,0.0239,0.0236,0.0229,0.0187,0.0177,0.0144,0.0138,0.0135,0.0136,0.0099,0.0099,0.0101,0.0102,0.0168,0.0175,0.0181,0,0,0,0,0,0.02,0.0251,0.0241,0.0249,0.0277,0.0294,0.0294,0.0266,0.0238,0.0249,0.0218,0.0178,0.0143,0.0139,0.0135,0.0135,0.0099,0.01,0.0102,0.0166,0.0174,0.0181,0,0,0,0,0,0,0.0235,0.0249,0.0237,0.0294,0.0292,0.0283,0.0298,0.0275,0.0262,0.0251,0.0202,0.0192,0.0186,0.016,0.0156,0.0138,0.0109,0.011,0.0159,0.0166,0.0172,0.0129,0.0098,0,0,0,0,0,0.0254,0.0287,0.0288,0.0332,0.0334,0.0315,0.0319,0.03,0.0287,0.0278,0.025,0.0217,0.0195,0.018,0.0163,0.0166,0.01,0.0159,0.0165,0.017,0.0132,0.005,0.0044,0.0108,0.0108,0.0108,0,0,0.0283,0.0293,0.0314,0.034,0.0336,0.0345,0.0311,0.0326,0.0323,0.0274,0.027,0.0246,0.0203,0.0199,0.0192,0.0173,0.0126,0.0172,0.0177,0.0135,0.0051,0.0044,0.0038,0.0109,0.0109,0.0109,0,0,0.0338,0.0364,0.0392,0.0393,0.0392,0.0382,0.0386,0.0378,0.0364,0.0369,0.0322,0.0295,0.0282,0.0236,0.0213,0.0244,0.0166,0.0246,0.0234,0.0158,0.0151,0.0143,0.0083,0.0069,0.0242,0.0242,0.0242,0,0.0364,0.0396,0.0404,0.0418,0.0413,0.0397,0.0404,0.0406,0.0395,0.0367,0.0374,0.0303,0.0289,0.023,0.0244,0.0254,0.0198,0.0214,0.0163,0.0154,0.0145,0.0084,0.0069,0.0246,0.0245,0.0245,0.0245,0,0.0416,0.0438,0.0458,0.0461,0.0466,0.0477,0.0467,0.0464,0.0447,0.0419,0.0374,0.0352,0.0284,0.0297,0.0284,0.0214,0.0193,0.0187,0.014,0.0143,0.008,0.0062,0.0251,0.0249,0.0248,0.0248,0,0,0.0463,0.0486,0.0486,0.047,0.0479,0.0476,0.0486,0.0456,0.0415,0.0416,0.0347,0.0336,0.0289,0.0257,0.0232,0.0178,0.0109,0.0159,0.0153,0.0091,-0.0063,-0.0026,-0.0042,0.009,0.0086,0.0084,-0.0072,0,0.0481,0.0501,0.0511,0.051,0.0505,0.049,0.0484,0.0457,0.0428,0.0371,0.0324,0.0265,0.0285,0.0241,0.0194,0.0119,0.006,0.0151,-0.0053,-0.0059,-0.0033,-0.0062,0.0073,-0.0085,-0.0089,-0.0093,-0.0095,0,0.0496,0.0503,0.051,0.0483,0.0478,0.0478,0.0416,0.041,0.0342,0.0311,0.0241,0.0197,0.0113,0.0136,-0.0011,0.0043,-0.0015,-0.006,-0.0068,-0.0085,-0.0056,-0.0097,-0.0128,-0.0125,-0.0123,-0.012,-0.0118,0,0.0465,0.0482,0.0476,0.0475,0.0465,0.0447,0.043,0.0378,0.035,0.0252,0.0213,0.0102,0.0047,-0.0052,-0.0113,-0.0086,-0.0273,-0.025,-0.0277,-0.0274,-0.0293,-0.0284,-0.0377,-0.0377,-0.0376,-0.0376,-0.0375,0,0.0449,0.0435,0.046,0.0451,0.0413,0.0417,0.0362,0.0326,0.0276,0.0235,0.017,0.0117,-0.0004,-0.01,-0.0166,-0.0273,-0.0321,-0.0311,-0.0327,-0.0251,-0.0237,-0.0303,-0.0293,-0.0382,-0.038,-0.0379,-0.0378,0,0.039,0.042,0.0398,0.0398,0.0396,0.0358,0.0338,0.0303,0.0265,0.021,0.018,0.0094,-0.0024,-0.0134,-0.03,-0.033,-0.0446,-0.047,-0.0387,-0.039,-0.0386,-0.037,-0.0547,-0.0547,-0.0547,-0.0548,-0.0548,0,0.0349,0.0344,0.0347,0.0336,0.0333,0.0304,0.0292,0.028,0.027,0.0214,0.0195,0.0072,0.0011,-0.0195,-0.031,-0.0481,-0.0473,-0.0544,-0.0466,-0.0414,-0.0412,-0.0395,-0.0379,-0.0548,-0.0548,-0.0548,-0.0548,0,0.0251,0.0266,0.0253,0.0273,0.0266,0.0258,0.026,0.026,0.0264,0.0229,0.0198,0.0098,-0.0031,-0.0177,-0.0314,-0.042,-0.0511,-0.0547,-0.0546,-0.0474,-0.0417,-0.0411,-0.0395,-0.0549,-0.0549,-0.0549,-0.0549,0,0.0159,0.0152,0.0185,0.0199,0.0206,0.0247,0.0233,0.0259,0.0261,0.0246,0.0229,0.0105,0.0022,-0.0147,-0.0269,-0.0383,-0.0394,-0.0409,-0.0416,-0.0416,-0.0311,-0.0216,-0.033,0,0,0,0,0,0.0087,0.0125,0.0122,0.0172,0.0193,0.0229,0.0244,0.0251,0.0275,0.0264,0.0261,0.0155,-0.0016,-0.0101,-0.0208,-0.0283,-0.0429,-0.0412,-0.0453,-0.0554,-0.0553,-0.0446,0,0,0,0,0,0,0.0046,0.0055,0.0119,0.0178,0.022,0.0269,0.0289,0.0291,0.0299,0.0291,0.02,0.0152,-0.0025,0.0056,-0.0198,-0.0238,-0.0273,-0.05,-0.0502,-0.0555,-0.0554,-0.0553,-0.0443,0,0,0,0,0]}]]